Location: ???????
(31.3052°N, 45.3075°E)
Time: 03:35:29
(UTC+00:00)

Daily predictions for brighter satellites

Satellite Brightness Start Highest point End
(mag) Time Altitude Azimuth Time Altitude Azimuth Time Altitude Azimuth
Cosmos 2344 3.7 01:08:38 60° NNE 01:08:38 60° NNE 01:14:40 10° NNE
Cosmos 1980 Rocket 3.7 01:06:55 21° SSE 01:09:47 33° ESE 01:14:49 10° NE
COSMOS 2455 4.0 01:12:01 21° SSE 01:15:20 38° ESE 01:20:51 10° NE
Cosmos 2184 Rocket 4.3 01:26:54 29° NNE 01:30:07 62° E 01:36:19 10° SSE
Meteor 1-24 Rocket 3.9 01:31:09 70° SE 01:31:09 70° SE 01:36:33 10° SSE
ALOS 4.0 01:32:36 10° NE 01:36:47 32° E 01:40:55 10° SSE
CZ-3A R/B 3.6 01:34:44 46° SW 01:37:08 60° S 02:10:40 10° E
BREEZE-M DEB (TANK) 4.4 01:33:08 34° NNW 01:37:29 53° NNE 01:41:43 10° ESE
Delta 128 4.5 01:45:52 43° SSE 01:45:52 43° SSE 01:49:29 10° ESE
Cosmos 2219 4.2 01:47:47 34° SSW 01:47:47 34° SSW 01:51:07 10° S
Cosmos 1626 Rocket 4.1 01:49:01 53° SE 01:49:01 53° SE 01:52:33 10° SSE
SEDSat Delta rocket 3.6 01:48:27 80° WNW 01:48:49 88° N 01:54:31 10° E
Cosmos 2082 4.3 01:46:13 28° N 01:49:01 54° ENE 01:54:36 10° SE
Okean O Rocket 4.1 01:45:52 10° NE 01:49:16 21° E 01:52:38 10° SE
Cosmos 1953 3.2 01:50:41 10° SSE 01:54:34 49° E 01:58:29 10° NNE
ATLAS 2A CENTAUR R/B 3.6 01:56:50 12° SSE 01:58:01 14° SE 02:00:42 10° ESE
Cosmos 2074 Rocket 3.8 01:56:54 35° NNW 01:59:39 70° W 02:05:48 10° S
Cosmos 2297 Rocket 2.2 02:00:33 59° WSW 02:00:33 59° WSW 02:05:57 10° S
Cosmos 2360 4.2 02:07:11 53° W 02:07:34 54° WNW 02:13:11 10° N
ATLAS 2AS CENTAUR R/B 3.1 02:03:21 10° SSW 02:11:09 84° ESE 02:19:13 10° NNE
Milstar 3 Cent rocket 4.4 01:55:28 10° SW 02:12:05 52° SSE 02:19:54 10° E
Cosmos 2227 Rocket 2.3 02:11:58 48° W 02:12:33 51° WSW 02:17:58 10° S
COSMO-SKYMED 1 2.7 02:13:28 10° SSE 02:17:47 72° ENE 02:21:46 12° N
Cosmos 1606 Rocket 4.1 02:15:02 10° S 02:19:25 61° E 02:23:49 10° NNE
OAO 3 Copernicus 4.5 02:18:38 45° WSW 02:19:51 59° SSW 02:24:49 10° SE
Cosmos 1726 Rocket 4.5 02:17:20 10° SSE 02:21:37 50° E 02:25:55 10° NNE
Cosmos 2278 4.3 02:24:09 34° WNW 02:24:09 34° WNW 02:29:05 10° N
Cosmos 2181 Rocket 4.3 02:22:18 10° S 02:28:23 68° E 02:34:35 10° NNE
METEOR-M 4.0 02:24:33 10° N 02:29:52 69° WNW 02:35:09 10° SSW
OAO 1 4.5 02:29:44 27° WSW 02:32:50 85° SSE 02:38:21 10° ENE
STARLINK 1031 4.2 02:30:09 10° SSW 02:33:31 45° SE 02:36:56 10° NE
Cosmos 44 Rocket 3.3 02:31:53 17° NNW 02:35:30 75° ENE 02:40:17 10° SSE
SJ-12 4.2 02:32:03 10° N 02:35:53 41° WNW 02:39:43 10° SW
STARLINK 1024 4.1 02:32:41 10° SSW 02:36:06 49° SE 02:39:32 10° NE
SL-16 R/B 2.9 02:31:20 10° S 02:36:50 56° ESE 02:42:22 10° NNE
STARLINK 1028 3.1 02:35:22 24° SSW 02:36:52 62° SE 02:39:45 10° NE
STARLINK 1021 3.1 02:35:35 24° SSW 02:37:05 62° SE 02:39:57 10° NE
STARLINK 1019 3.1 02:35:50 24° SSW 02:37:20 62° SE 02:40:11 10° NE
STARLINK 1012 3.0 02:36:01 24° SSW 02:37:32 63° SE 02:40:25 10° NE
STARLINK 1010 3.0 02:36:13 24° SSW 02:37:44 64° SE 02:40:37 10° NE
STARLINK 1026 3.0 02:36:27 24° SSW 02:37:59 64° SE 02:40:51 10° NE
STARLINK 1013 3.0 02:36:39 24° SSW 02:38:12 65° SE 02:41:05 10° NE
STARLINK 1009 3.0 02:36:53 24° SSW 02:38:26 65° SE 02:41:19 10° NE
STARLINK 1015 3.0 02:37:06 24° SSW 02:38:39 66° SE 02:41:33 10° NE
STARLINK 1016 3.0 02:37:18 24° SSW 02:38:52 66° SE 02:41:45 10° NE
STARLINK 1008 2.9 02:37:32 24° SSW 02:39:06 67° SE 02:41:59 10° NE
STARLINK 1025 2.9 02:37:58 23° SSW 02:39:33 68° SE 02:42:26 10° NE
STARLINK 1017 2.9 02:38:10 23° SSW 02:39:46 69° SE 02:42:40 10° NE
STARLINK 1023 2.9 02:38:23 23° SSW 02:39:59 69° SE 02:42:53 10° NE
STARLINK 1007 2.9 02:38:37 23° SSW 02:40:14 70° SE 02:43:08 10° NE
STARLINK 1014 2.9 02:38:42 22° SSW 02:40:24 70° SE 02:43:20 10° NE
STARLINK 1048 2.9 02:38:50 23° SSW 02:40:28 70° SE 02:43:22 10° NE
STARLINK 1049 2.8 02:39:02 23° SSW 02:40:40 71° SE 02:43:35 10° NE
STARLINK 1051 2.8 02:39:14 23° SSW 02:40:53 72° SE 02:43:47 10° NE
STARLINK 1032 3.8 02:37:50 10° SSW 02:41:18 58° SE 02:44:48 10° NE
Cosmos 2341 Rocket 4.0 02:36:16 10° N 02:42:32 85° E 02:48:44 10° S
Cosmos 1626 4.1 02:44:30 15° SW 02:44:30 15° SW 02:45:25 10° SW
STARLINK 1011 3.6 02:40:25 10° SSW 02:43:54 62° SE 02:47:25 10° NE
Meteor 2-10 4.1 02:38:42 10° S 02:44:20 79° W 02:49:49 10° N
STARLINK 1036 3.5 02:43:01 10° SW 02:46:32 67° SE 02:50:03 10° NE
Meteor 1-16 Rocket 4.3 02:41:24 10° SSW 02:47:19 75° W 02:53:13 10° N
Cosmos 2228 3.0 02:44:39 10° SSW 02:48:59 63° W 02:53:21 10° N
Centaur D-1A AC-32 3.0 02:47:25 17° WSW 02:49:52 42° S 02:54:31 10° ESE
STARLINK 1047 3.3 02:48:17 10° SW 02:51:49 79° SE 02:55:22 10° NE
Lacrosse 5 2.3 02:47:06 10° SSW 02:52:06 64° SE 02:57:08 10° NE
STARLINK 1037 3.3 02:48:45 10° SW 02:52:18 80° SE 02:55:52 10° NE
ATLAS 2A CENTAUR R/B 4.4 02:35:13 18° W 02:52:30 58° SSW 02:57:48 10° ESE
Cosmos 1980 Rocket 3.1 02:49:07 10° WSW 02:53:43 26° WNW 02:58:27 10° N
STARLINK 1059 3.2 02:51:26 10° SW 02:54:59 87° SE 02:58:33 10° NE
CZ-4B R/B 3.1 02:49:35 10° N 02:55:05 72° WNW 03:00:28 10° SSW
PAYLOAD B 4.4 02:51:04 10° N 02:56:28 49° WNW 03:01:49 10° SW
SJ-7 4.4 02:52:46 10° N 02:56:55 71° WNW 03:01:05 10° SSW
Cosmos 923 Rocket 4.2 02:52:33 10° SW 02:57:34 48° WNW 03:02:41 10° N
STARLINK 1057 3.1 02:54:07 10° SW 02:57:40 87° NW 03:01:15 10° NE
FENGYUN 3A 4.2 02:55:01 10° N 02:59:51 34° WNW 03:04:41 10° SW
STARLINK 1052 3.1 02:56:49 10° SW 03:00:22 81° NW 03:03:56 10° NE
Helios 1A Rocket 2.9 02:56:59 10° N 03:01:05 66° WNW 03:05:10 10° SSW
SL-4 R/B 3.8 02:58:40 10° NNW 03:01:15 19° NE 03:03:47 10° E
COSMOS 2455 3.7 02:56:16 10° WSW 03:01:17 27° WNW 03:06:19 10° N
CZ-3 R/B 2.4 02:47:34 15° W 03:02:36 71° SSW 03:07:43 10° ESE
Cosmos 1726 2.7 02:59:15 10° SSW 03:02:37 33° W 03:05:58 10° NNW
STARLINK 1068 3.1 02:59:32 10° SW 03:03:05 74° NW 03:06:40 10° NE
BREEZE-M DEB (TANK) 1.3 03:02:14 20° NW 03:03:41 74° SW 03:05:48 10° SE
H-2A R/B 3.0 03:01:16 10° NNE 03:05:10 76° E 03:09:02 10° S
SKYMED 2 4.5 03:02:09 10° SSW 03:05:51 28° W 03:09:35 10° NW
STARLINK 1060 3.2 03:05:00 10° SW 03:08:32 64° NW 03:12:05 10° NE
CZ-3 Stage 3 3.0 03:04:44 13° W 03:09:20 33° SSW 03:11:54 10° SE
Cosmos 1908 3.3 03:07:02 10° SSW 03:10:51 55° W 03:14:42 10° N
STARLINK 1035 3.1 03:07:52 10° SW 03:11:07 54° NW 03:14:25 10° NNE
STARLINK 1030 3.2 03:07:44 10° SW 03:11:16 59° NW 03:14:49 10° NE
OE (NEXTSAT) 4.4 03:09:45 10° WSW 03:13:11 56° NW 03:16:39 10° NE
STARLINK 1027 3.3 03:10:14 10° WSW 03:13:28 46° NW 03:16:42 10° NNE
ALOS 3.5 03:10:38 10° NNW 03:13:55 19° WNW 03:17:12 10° WSW
STARLINK 1020 3.3 03:10:30 10° SW 03:14:01 55° NW 03:17:33 10° NE
Cosmos 1953 Rocket 3.5 03:10:49 10° NNW 03:15:11 64° W 03:19:30 10° S
Cosmos 2218 Rocket 4.1 03:08:55 10° N 03:15:20 87° W 03:21:38 10° S
STARLINK 1034 3.4 03:13:18 10° WSW 03:16:48 51° NW 03:20:17 10° NNE
STARLINK-46 1.6 03:16:45 13° NW 03:18:27 79° SW 03:20:30 10° SE
Cosmos 1758 Rocket 4.4 03:16:20 10° NNW 03:20:08 29° W 03:23:58 10° SSW
USA 32 4.3 03:15:25 10° NNW 03:20:24 46° W 03:25:23 10° SSW
NOSS 3-2 (C) 4.4 03:13:04 10° NNW 03:20:59 73° ENE 03:29:34 10° SE
STARLINK 1033 3.6 03:18:55 10° WSW 03:22:21 44° NW 03:25:48 10° NNE
Cosmos 2227 4.2 03:17:59 10° NNW 03:23:39 90° SW 03:29:15 10° SSE
Okean-O 4.1 03:19:38 10° NNE 03:23:52 43° E 03:28:04 10° S
Okean O Rocket 2.6 03:21:51 10° NNW 03:25:31 26° WNW 03:29:09 10° SW
STARLINK 1040 4.0 03:24:23 10° W 03:26:40 22° NW 03:28:58 10° NNE
Cosmos 1703 3.3 03:23:26 10° NNW 03:27:18 56° W 03:31:09 10° S
NOSS 3-4 (A) 4.0 03:22:13 10° WSW 03:27:34 34° NW 03:33:06 10° N
NOSS 3-4 (C) 4.0 03:22:18 10° WSW 03:27:40 34° NW 03:33:13 10° NNE
IRS-1C Rocket 4.1 03:23:17 10° NNE 03:28:35 85° WNW 03:33:51 10° SSW
USA 215 3.3 03:23:14 10° SE 03:29:44 74° SW 03:36:17 10° NW
ATLAS 3B R/B 3.8 03:25:16 10° NNW 03:31:40 43° NE 03:38:16 10° SE
CZ-4 R/B 4.0 03:29:26 10° NE 03:33:05 28° E 03:36:41 10° SSE
CORIOLIS 4.2 03:29:24 10° N 03:34:46 84° WNW 03:40:08 10° SSW
SEDSat Delta rocket 3.8 03:29:21 10° W 03:35:17 68° SSW 03:40:25 10° ESE
